Hourly Data Report for February 16, 2003

TORONTO CITY
ONTARIO

43°40'00.000" N
79°24'00.000" W
112.50 m
6158355
71508
XTO

Download Data

Hourly Data (February 2003)
Hourly Data Report for February 16, 2003
TIME
LST
Temp Definition
°C
Dew Point Definition
°C
Rel Hum Definition
%
Precip. Amount Definition
mm

Wind Dir Definition
10's deg

Wind Spd Definition
km/h
Visibility Definition
km
Stn Press Definition
kPa
Hmdx Definition


Wind Chill Definition


Weather Definition


00:00 -15.7 -24.1 48     0 LegendMM 102.48     LegendNANA
01:00
02:00
03:00 -15.9 -23.0 54     0 LegendMM 102.45     LegendNANA
04:00 -16.5 -21.3 66     0 LegendMM 102.46     LegendNANA
05:00 -17.1 -20.3 76     0 LegendMM 102.57     LegendNANA
06:00 -17.5 -21.4 72     0 LegendMM 102.61     LegendNANA
07:00 -18.0 -23.4 63     0 LegendMM 102.64     LegendNANA
08:00 -18.2 -23.8 61     0 LegendMM 102.69     LegendNANA
09:00 -18.1 -24.1 59     0 LegendMM 102.74     LegendNANA
10:00 -17.2 -23.4 59     0 LegendMM 102.70     LegendNANA
11:00 -16.1 -20.1 71     0 LegendMM 102.59     LegendNANA
12:00 -13.7 -16.1 82     0 LegendMM 102.56     LegendNANA
13:00 -12.5 -14.9 82     0 LegendMM 102.44     LegendNANA
14:00 -12.5 -14.9 82     0 LegendMM 102.30     LegendNANA
15:00 -12.8 -15.0 84     0 LegendMM 102.27     LegendNANA
16:00 -12.0 -14.4 82     0 LegendMM 102.29     LegendNANA
17:00 -12.6 -16.9 70     0 LegendMM 102.20     LegendNANA
18:00 -12.8 -18.1 64     0 LegendMM 102.14     LegendNANA
19:00 -12.9 -19.1 60     0 LegendMM 102.09     LegendNANA
20:00 -13.4 -21.0 53     0 LegendMM 102.01     LegendNANA
21:00
22:00 -12.8 -18.5 62     0 LegendMM 101.88     LegendNANA
23:00 -12.9 -18.2 64     0 LegendMM 101.83     LegendNANA

Notes on Data Quality.

Legend

  • E = Estimated
  • M = Missing
  • NA = Not Available*
  • [empty] = Indicates an unobserved value
Date modified: